VE1RCI-13 Weather Reports


time (UTC)temp
C
wind
direction
speed
KPH
gust
KPH
rain 1hr
cm
rain 24hr
cm
rain mn
cm
humidity
%
barometer
mb
20260505011754 12 0.0 0.0 0.00 0.00 0.00 61 1006.3
20260505010742 12 0.0 0.0 0.00 0.00 0.00 61 1006.3
20260505005730 12 0.0 0.0 0.00 0.00 0.00 61 1006.3
20260505004718 11 0.0 0.0 0.00 0.00 0.00 61 1006.0
20260505003705 11 0.0 0.0 0.00 0.00 0.00 60 1005.9
20260505002653 11 0.0 0.0 0.00 0.00 0.00 60 1005.9
20260505001641 12 0.0 0.0 0.00 0.00 0.00 60 1006.3
20260505000629 12 0.0 0.0 0.00 0.00 0.00 59 1005.5
20260504235617 12 0.0 0.0 0.00 0.00 0.00 59 1005.5
20260504234605 12 0.0 0.0 0.00 0.00 0.00 59 1005.3
20260504233553 12 0.0 0.0 0.00 0.00 0.00 59 1005.2
20260504232540 12 0.0 0.0 0.00 0.00 0.00 59 1005.3
20260504231528 12 0.0 0.0 0.00 0.00 0.00 59 1005.2
20260504230516 12 0.0 0.0 0.00 0.00 0.00 58 1005.3
20260504225504 12 0.0 0.0 0.00 0.00 0.00 57 1004.8
20260504224452 13 0.0 0.0 0.00 0.00 0.00 57 1004.7
20260504223440 13 0.0 0.0 0.00 0.00 0.00 56 1004.6
20260504222427 13 0.0 0.0 0.00 0.00 0.00 56 1004.5
20260504221415 13 0.0 0.0 0.00 0.00 0.00 56 1004.6
20260504220403 13 0.0 0.0 0.00 0.00 0.00 55 1004.6
20260504215351 13 0.0 0.0 0.00 0.00 0.00 55 1004.4
20260504214339 14 0.0 0.0 0.00 0.00 0.00 54 1004.4
20260504213326 14 0.0 0.0 0.00 0.00 0.00 54 1004.1
20260504212314 14 0.0 0.0 0.00 0.00 0.00 53 1004.0
20260504211302 14 0.0 0.0 0.00 0.00 0.00 52 1003.9
20260504210250 14 0.0 0.0 0.00 0.00 0.00 51 1003.7
20260504205238 15 0.0 0.0 0.00 0.00 0.00 50 1003.7
20260504204226 15 0.0 0.0 0.00 0.00 0.00 49 1003.6
20260504203213 15 0.0 0.0 0.00 0.00 0.00 48 1003.6
20260504202202 16 0.0 0.0 0.00 0.00 0.00 46 1003.5
20260504201149 16 0.0 0.0 0.00 0.00 0.00 43 1003.3
20260504200137 16 0.0 0.0 0.00 0.00 0.00 42 1003.1
20260504195125 16 0.0 0.0 0.00 0.00 0.00 48 1002.7
20260504194113 16 0.0 0.0 0.00 0.00 0.00 49 1002.9
20260504193101 16 0.0 0.0 0.00 0.00 0.00 48 1002.8
20260504192049 16 0.0 0.0 0.00 0.00 0.00 47 1002.6
20260504191036 16 0.0 0.0 0.00 0.00 0.00 47 1002.6
20260504190024 16 0.0 0.0 0.00 0.00 0.00 44 1002.4
20260504185012 16 0.0 0.0 0.00 0.00 0.00 48 1002.3
20260504184000 16 0.0 0.0 0.00 0.00 0.00 49 1002.5
20260504182948 16 0.0 0.0 0.00 0.00 0.00 46 1002.6
20260504181935 16 0.0 0.0 0.00 0.00 0.00 46 1002.7
20260504180923 16 0.0 0.0 0.00 0.00 0.00 50 1002.6
20260504175911 16 0.0 0.0 0.00 0.00 0.00 50 1002.8
20260504174859 16 0.0 0.0 0.00 0.00 0.00 52 1002.5
20260504173847 16 0.0 0.0 0.00 0.00 0.00 53 1002.7
20260504172835 15 0.0 0.0 0.00 0.00 0.00 53 1002.8
20260504171822 15 0.0 0.0 0.00 0.00 0.00 53 1002.7
20260504170810 15 0.0 0.0 0.00 0.00 0.00 54 1002.5
20260504150544 12 0.0 0.0 0.00 0.00 0.00 59 1002.5
20260504140431 11 0.0 0.0 0.00 0.00 0.00 69 1002.0
20260504130319 10 0.0 0.0 0.00 0.00 0.00 78 1001.0
20260504120206 8 0.0 0.0 0.00 0.00 0.00 78 1000.4
20260504081739 7 0.0 0.0 0.00 0.00 0.00 81 995.2
20260504080726 7 0.0 0.0 0.00 0.00 0.00 81 995.0
20260504050348 6 0.0 0.0 0.00 0.00 0.00 80 990.6
20260504045336 6 0.0 0.0 0.00 0.00 0.00 80 990.4
20260504044324 6 0.0 0.0 0.00 0.00 0.00 80 990.1
20260504043311 6 0.0 0.0 0.00 0.00 0.00 80 989.8
20260504042259 6 0.0 0.0 0.00 0.00 0.00 79 989.8
20260504041245 6 0.0 0.0 0.00 0.00 0.00 79 989.3
20260504040233 6 0.0 0.0 0.00 0.00 0.00 79 989.1
20260504035221 7 0.0 0.0 0.00 0.00 0.00 79 988.7
20260504034208 7 0.0 0.0 0.00 0.00 0.00 79 988.3
20260504033156 7 0.0 0.0 0.00 0.00 0.00 79 988.0
20260504032144 7 0.0 0.0 0.00 0.00 0.00 79 987.6
20260504031132 7 0.0 0.0 0.00 0.00 0.00 79 987.4
20260504030120 7 0.0 0.0 0.00 0.00 0.00 78 986.9
20260504025108 7 0.0 0.0 0.00 0.00 0.00 78 986.7
20260504024056 7 0.0 0.0 0.00 0.00 0.00 78 986.4
20260504023044 7 0.0 0.0 0.00 0.00 0.00 78 986.1
20260504022031 7 0.0 0.0 0.00 0.00 0.00 78 985.7
20260504021019 7 0.0 0.0 0.00 0.00 0.00 78 985.2
20260504020007 7 0.0 0.0 0.00 0.00 0.00 79 984.7
20260504014955 7 0.0 0.0 0.00 0.00 0.00 79 984.2
20260504013942 7 0.0 0.0 0.00 0.00 0.00 79 983.8
20260504012930 7 0.0 0.0 0.00 0.00 0.00 78 983.3